Regional Weather Roundup
Issued by NWS

Home | Current Version | Previous Version | Graphics & Text | Print | Product List | Glossary On
Versions: 1 2 3 4 5 6 7 8 9 10 11 12 13 14 15 16 17 18 19 20 21 22 23 24 25 26 27 28 29 30 31 32 33 34 35 36 37 38 39 40 41 42 43 44 45 46 47 48 49 50
000
ASUS43 KIND 140209
RWRIN

WEATHER ROUNDUP FOR INDIANA
NATIONAL WEATHER SERVICE INDIANAPOLIS IN
900 PM EST WED DEC 13 2017

NOTE: "FAIR" INDICATES FEW OR NO CLOUDS BELOW 12,000 FEET WITH NO
SIGNIFICANT WEATHER AND/OR OBSTRUCTIONS TO VISIBILITY.

* - STATION DOES NOT REPORT WEATHER SUCH AS PRECIPITATION OR FOG.

+ - STATION NOT QUALITY CONTROLLED BY THE NATIONAL WEATHER SERVICE.
    USE DATA WITH CAUTION...ESPECIALLY DEWPOINT AND RELATIVE
    HUMIDITY OBSERVATIONS.

INZ001>003-010>013-019-020-140300-
NORTHWEST INDIANA

CITY           SKY/WX    TMP DP  RH WIND       PRES   REMARKS
GARY /AIRPORT/ CLOUDY    32  19  59 W25G41    29.55R WCI  19
KNOX *+        CLOUDY    32  25  74 NW25G35   29.47R WCI  19
LA PORTE +     CLOUDY    30  24  78 NW18G32   29.48R WCI  18
MICHIGAN CITY+ CLOUDY    32  25  74 NW21G35   29.50R WCI  20
MONTICELLO +   CLOUDY    33  24  70 W23G36    29.52R WCI  20
RENSSELAER +   CLOUDY    32  21  64 NW23G32   29.55R WCI  19
VALPARAISO     CLOUDY    31  22  69 NW17G32   29.51R WCI  19

$$

LMZ046-743>745-140300-
SOUTHERN LAKE MICHIGAN

STATION/POSITION TIME  TEMP    WIND        PRES    WAVE
                       AIR SEA DIR/SP/G            HT
                 (UTC) (F)     (DEG/KT/KT) (MB)    (FT)
BURNS HARBOR     0140   31     300/ 30/ 36  999.3R
MICHIGAN CITY    0140   31     290/ 33/ 39   N/A

$$

INZ004-005-014>016-021>024-140300-
NORTH CENTRAL INDIANA

CITY           SKY/WX    TMP DP  RH WIND       PRES   REMARKS
ELKHART        LGT SNOW  30  28  93 W17G25    29.40R FOG     WCI  18
GOSHEN         LGT SNOW  31  27  85 W22G29    29.40R FOG     WCI  18
LOGANSPORT +   CLOUDY    32  27  80 W17G30    29.50R WCI  21
PERU/GRISSOM   CLOUDY    33  27  79 W30G40    29.46R WCI  19
ROCHESTER +    MOCLDY    36  28  75 W17G39    29.46R WCI  25
SOUTH BEND     LGT SNOW  30  28  92 NW21G30   29.44R FOG     WCI  17
WARSAW +       FLURRIES  32  27  80 NW26G36   29.42R WCI  18

$$

INZ006>009-017-018-025>027-140300-
NORTHEAST INDIANA

CITY           SKY/WX    TMP DP  RH WIND       PRES   REMARKS
AUBURN +       LGT RAIN  34  30  86 W23G29    29.36R WCI  22
FORT WAYNE     FLURRIES  35  29  78 W23G35    29.39R WCI  23
HUNTINGTON +   CLOUDY    33  28  80 NW16G29   29.41R WCI  23
KENDALLVILLE + LGT SNOW  31  29  90 W12G24    29.36R WCI  22

$$

INZ028-029-035-036-043>045-051>053-140300-
WEST CENTRAL INDIANA

CITY           SKY/WX    TMP DP  RH WIND       PRES   REMARKS
CRAWFORDSVL +  CLOUDY    35  27  71 MISG      29.56R
GREENCASTLE +  CLOUDY    37  28  70 W14G24    29.57R WCI  29
LAFAYETTE      CLOUDY    35  27  72 W23G35    29.55R WCI  23
TERRE HAUTE    LGT RAIN  40  29  64 W17G35    29.62R WCI  31

$$

INZ030>032-037>040-046>048-054>057-064-065-140300-
CENTRAL INDIANA

CITY           SKY/WX    TMP DP  RH WIND       PRES   REMARKS
COLUMBUS       LGT RAIN  39  28  65 W24G37    29.55R WCI  28
FRANKFORT +    CLOUDY    37  30  77 NW24G35   29.54R WCI  25
INDIANAPOLIS   CLOUDY    39  28  64 W28G40    29.54R WCI  28
-EAGLE CREEK   CLOUDY    39  28  64 W30G43    29.52R WCI  27
KOKOMO +       CLOUDY    33  26  75 W26G37    29.48R WCI  20
MARION +       CLOUDY    33  27  77 W31G45    29.47R WCI  19
MT COMFORT *+  CLOUDY    37  32  81 W28G35    29.51R WCI  25
SHELBYVILLE    CLOUDY    41  29  62 W25G37    29.51R
ZIONSVILLE +   CLOUDY    34  31  88 W16G30    29.52R WCI  23

$$

INZ033-034-041-042-049-050-058-059-140300-
EAST CENTRAL INDIANA

CITY           SKY/WX    TMP DP  RH WIND       PRES   REMARKS
MUNCIE         CLOUDY    37  29  72 W28G43    29.44R WCI  25
RICHMOND +     CLOUDY    36  32  87 W35G43    29.45R WCI  22

$$

INZ060-061-067>069-081>083-085>088-140300-
SOUTHWEST INDIANA

CITY           SKY/WX    TMP DP  RH WIND       PRES   REMARKS
EVANSVILLE     CLEAR     46  28  49 W9        29.69R
HUNTINGBURG +  MOCLDY    47  30  51 W21G28    29.64R
WASHINGTON +   CLOUDY    43  32  65 NW18      29.64R

$$

INZ062-063-066-070>080-084-089>092-140300-
SOUTH CENTRAL AND SOUTHEAST INDIANA

CITY           SKY/WX    TMP DP  RH WIND       PRES   REMARKS
BEDFORD +      CLOUDY    43  32  65 W12G25    29.59R
BLOOMINGTON    CLOUDY    41  29  62 NW18G37   29.58R
MADISON *+     CLOUDY    46  28  49 W22G35    29.56R
NORTH VERNON + CLOUDY    41  30  65 W22G35    29.54R
SEYMOUR +      CLOUDY    45  30  57 W20G30    29.56R

$$





USA.gov is the U.S. government's official web portal to all federal, state and local government web resources and services.